FENGYUN 1C DEB, 29786

Orbit data source: Space-Track

FENGYUN 1C DEB, 29786 is space debris in SSO originally from a launch on Mon, 10 May 1999 UTC launched from the Taiyaun Space Center, China (TSC). Fengyun 1C debris stems from the Chinese weather satellite Fengyun-1C, which was intentionally destroyed by a Chinese anti-satellite missile in 2007. This event dramatically increased the amount of space debris, with thousands of trackable fragments posing hazards to satellites and human spaceflight. The Fengyun 1C debris cloud has become a focal point in discussions about space sustainability and the need for international regulations to prevent the creation of new debris.

Loading next visibility...
Identifier
29786, 1999-025CC
Orbit
SSO
Country
Flag of CNCN / PRC
Related business
Manufacturer
Unknown
Mission
Spacecraft
Bus & Motor
Unknown
Mass
Unknown
Launch date (UTC)
1999-05-10 (27 years ago)
Launch vehicle
Unknown
Launch site
Taiyaun Space Center, China (TSC)
Object type
Payload
Rocket body
Debris
Shape & HBR
Unknown shape, 0.1 m
Radar Cross Section
Medium (>0.1 m² and <1 m²)

Expand to show TLE details & history
Last TLE update: 15 hours ago

TLE from 15 hours ago
0 FENGYUN 1C DEB
1 29786U 99025CC  26257.79485874  .00000215  00000-0  14461-3 0  9998
2 29786  98.7243 271.4785 0076677 241.3927 294.7352 14.09235045 10479
Epoch: 2026-09-14T19:04Z
TLE epoch observation values (Epoch: 2026-09-14T19:04:35.795Z)
Latitude
4.53115°
Longitude
172.25243°
Altitude
841.536 km
Speed
7.444 km/s
True Right ascension
06h 08m 41s
True Declination
4° 30' 16"
Sunlit
Object was in daylight at epoch
Visualization orbit readout
Latitude
Unknown
Longitude
Unknown
Altitude
Unknown
Speed
Unknown
Apparent Right ascension
Unknown
Apparent Declination
Unknown
Sunlit
N/A
Visualization observer readout
Local Sidereal Time
02:13:38
Azimuth
Unknown
Elevation
Unknown
Doppler factor
Unknown
Orbital elements
Apogee altitude
914.657 km
Perigee altitude
803.671 km
Semi-major axis
7,237.301 km
Eccentricity
0.00767
Inclination
98.7243°
RAAN
271.4785°
Arg. of periapsis
241.3927°
True anomaly
293.93397°
Mean anomaly
294.7352°
Eccentric anomaly
294.33491°
Mean motion
3.52515 °/min
Orbital period
102.12 mins
BSTAR
0.00014461
Loading maneuver chart data...
Computing Atmospheric mass density...
Loading historical data...
Loading historical data...
Loading historical data...
Loading historical data...
Loading historical data...
Loading historical data...
Loading historical data...

Documentation

Showing up to 5 results
|